Log in  \/ 
x
x

Gillespie Operations

The Plus One Flyers, Inc SEE office is located at 1987 N.Marshall Ave, El Cajon 92020

Your Plus One key will open the lock box where the office key is located. PLEASE BE SURE TO PUT THE KEY BACK IN THE BOX.

We just did a major remodel of the facility and we now have a large meeting/ class room with a large screen TV for presentations. 

Go check it out!

 

Additional info
  • Operations Officer: Dave Eby
  • Phone Number: 619-279-7499
  • E-Mail: seeops@plusoneflyers.org
Comments
  • No comments found

Leave your comments

0 Character restriction
Your text should be more than 10 characters
terms and condition.
Special Instructions

Use your Plus One key to gain access to the real estate lock box.  This key will open the door.  Please remember to return the key to the lock box.

Gillespie Weather

[source: ADDS]
METAR
KSEE 290535Z AUTO 00000KT 10SM SCT014 16/14 A2992 RMK AO2 =
KNKX 290455Z 21004KT 10SM BKN012 17/12 A2992 RMK AO2 SLP124 T01720122 $ =
TAF
TAF KNKX 2903/3003 VRB05KT 9999 SCT010 QNH2987INS BECMG 2904/2906 VRB05KT 9999 BKN010 QNH2989INS TEMPO 2906/2912 3200 BR OVC005 BECMG 2914/2916 22007KT 9999 SCT010 QNH2989INS FM300130 VRB05KT 9999 BKN010 QNH2989INS T16/2912Z T26/2922Z =
SR / SS: 12:42 / 03:00 UTC ( 2017-06-29)

Gillespie Operations Map